TimeEDT,TemperatureF,Dew PointF,Humidity,Sea Level PressureIn,VisibilityMPH,Wind Direction,Wind SpeedMPH,Gust SpeedMPH,PrecipitationIn,Events,Conditions,WindDirDegrees,DateUTC
12:15 AM,68.0,66.2,94,30.09,10.0,East,4.6,-,N/A,,Overcast,100,2013-08-16 04:15:00
12:35 AM,68.0,66.2,94,30.09,10.0,ENE,3.5,-,N/A,,Overcast,70,2013-08-16 04:35:00
12:55 AM,66.2,66.2,100,30.09,5.0,East,4.6,-,N/A,Rain,Rain,90,2013-08-16 04:55:00
1:15 AM,66.2,66.2,100,30.08,4.0,ENE,3.5,-,N/A,,Overcast,60,2013-08-16 05:15:00
1:55 AM,66.2,66.2,100,30.06,5.0,East,4.6,-,N/A,,Drizzle,90,2013-08-16 05:55:00
2:15 AM,66.2,66.2,100,30.06,7.0,ESE,5.8,-,N/A,Rain,Rain,110,2013-08-16 06:15:00
2:35 AM,66.2,66.2,100,30.05,7.0,East,4.6,-,N/A,,Drizzle,90,2013-08-16 06:35:00
2:55 AM,66.2,66.2,100,30.05,5.0,ENE,3.5,-,N/A,Rain,Light Rain,60,2013-08-16 06:55:00
3:15 AM,66.2,66.2,100,30.04,4.0,ENE,4.6,-,N/A,Rain,Rain,70,2013-08-16 07:15:00
3:35 AM,66.2,66.2,100,30.04,5.0,Calm,Calm,-,N/A,Rain,Rain,0,2013-08-16 07:35:00
3:55 AM,66.2,66.2,100,30.03,5.0,ENE,4.6,-,N/A,Rain,Rain,60,2013-08-16 07:55:00
4:15 AM,66.2,66.2,100,30.04,7.0,Calm,Calm,-,N/A,Rain,Light Rain,0,2013-08-16 08:15:00
4:35 AM,66.2,66.2,100,30.03,5.0,East,5.8,-,N/A,Rain,Light Rain,80,2013-08-16 08:35:00
4:55 AM,66.2,66.2,100,30.02,7.0,ENE,6.9,-,N/A,,Light Drizzle,70,2013-08-16 08:55:00
5:15 AM,66.2,66.2,100,30.03,10.0,East,6.9,-,N/A,,Overcast,80,2013-08-16 09:15:00
5:35 AM,66.2,66.2,100,30.03,7.0,East,3.5,-,N/A,,Overcast,90,2013-08-16 09:35:00
5:55 AM,66.2,66.2,100,30.04,7.0,East,3.5,-,N/A,,Overcast,100,2013-08-16 09:55:00
6:15 AM,66.2,66.2,100,30.04,10.0,East,4.6,-,N/A,,Overcast,100,2013-08-16 10:15:00
6:35 AM,66.2,66.2,100,30.04,10.0,East,3.5,-,N/A,,Overcast,100,2013-08-16 10:35:00
6:55 AM,68.0,66.2,94,30.05,7.0,East,3.5,-,N/A,Rain,Rain,90,2013-08-16 10:55:00
7:15 AM,68.0,66.2,94,30.05,4.0,Calm,Calm,-,N/A,,Overcast,0,2013-08-16 11:15:00
7:35 AM,68.0,68.0,100,30.05,2.5,East,3.5,-,N/A,Rain,Light Rain,80,2013-08-16 11:35:00
7:55 AM,68.0,68.0,100,30.06,1.5,Calm,Calm,-,N/A,Rain,Light Rain,0,2013-08-16 11:55:00
8:15 AM,68.0,68.0,100,30.05,1.5,East,3.5,-,N/A,Rain,Light Rain,80,2013-08-16 12:15:00
8:35 AM,68.0,68.0,100,30.05,3.0,East,5.8,-,N/A,,Overcast,90,2013-08-16 12:35:00
8:55 AM,68.0,68.0,100,30.05,3.0,East,4.6,-,N/A,,Overcast,80,2013-08-16 12:55:00
9:15 AM,68.0,68.0,100,30.06,1.8,East,3.5,-,N/A,,Overcast,90,2013-08-16 13:15:00
9:35 AM,68.0,68.0,100,30.06,1.0,East,3.5,-,N/A,,Overcast,80,2013-08-16 13:35:00
9:55 AM,68.0,68.0,100,30.06,1.5,ENE,3.5,-,N/A,Rain,Rain,60,2013-08-16 13:55:00
10:15 AM,69.8,69.8,100,30.06,2.5,ENE,4.6,-,N/A,,Overcast,70,2013-08-16 14:15:00
10:35 AM,69.8,69.8,100,30.07,4.0,Calm,Calm,-,N/A,Rain,Light Rain,0,2013-08-16 14:35:00
10:55 AM,69.8,69.8,100,30.07,7.0,East,4.6,-,N/A,,Overcast,90,2013-08-16 14:55:00
11:15 AM,69.8,69.8,100,30.07,3.0,ENE,3.5,-,N/A,,Light Drizzle,60,2013-08-16 15:15:00
11:35 AM,69.8,69.8,100,30.08,2.5,ENE,3.5,-,N/A,Rain,Light Rain,60,2013-08-16 15:35:00
11:55 AM,69.8,69.8,100,30.07,1.8,NNE,4.6,-,N/A,Rain,Light Rain,30,2013-08-16 15:55:00
12:15 PM,69.8,69.8,100,30.07,2.5,NNE,3.5,-,N/A,Rain,Light Rain,30,2013-08-16 16:15:00
12:35 PM,69.8,69.8,100,30.07,1.8,North,3.5,-,N/A,,Drizzle,350,2013-08-16 16:35:00
12:55 PM,69.8,69.8,100,30.07,1.8,NNE,5.8,-,N/A,Rain,Heavy Rain,20,2013-08-16 16:55:00
1:15 PM,69.8,68.0,94,30.07,4.0,NNE,8.1,-,N/A,Rain,Light Rain,30,2013-08-16 17:15:00
1:35 PM,69.8,69.8,100,30.06,10.0,NNE,9.2,-,N/A,Rain,Light Rain,30,2013-08-16 17:35:00
1:55 PM,69.8,68.0,94,30.05,10.0,NNE,9.2,-,N/A,,Overcast,30,2013-08-16 17:55:00
2:15 PM,69.8,68.0,94,30.06,10.0,NE,8.1,-,N/A,,Overcast,50,2013-08-16 18:15:00
2:35 PM,69.8,68.0,94,30.05,10.0,NNE,8.1,-,N/A,,Overcast,30,2013-08-16 18:35:00
2:55 PM,69.8,68.0,94,30.06,10.0,NNE,9.2,-,N/A,,Overcast,30,2013-08-16 18:55:00
3:15 PM,69.8,68.0,94,30.05,10.0,NE,9.2,-,N/A,,Overcast,50,2013-08-16 19:15:00
3:35 PM,69.8,68.0,94,30.05,10.0,NNE,6.9,-,N/A,,Overcast,30,2013-08-16 19:35:00
3:55 PM,69.8,68.0,94,30.05,10.0,North,6.9,-,N/A,,Overcast,10,2013-08-16 19:55:00
4:15 PM,69.8,68.0,94,30.04,10.0,NE,6.9,-,N/A,,Overcast,40,2013-08-16 20:15:00
4:35 PM,69.8,68.0,94,30.04,10.0,NE,9.2,-,N/A,,Overcast,50,2013-08-16 20:35:00
4:55 PM,69.8,68.0,94,30.03,10.0,NE,10.4,16.1,N/A,,Overcast,40,2013-08-16 20:55:00
5:15 PM,69.8,68.0,94,30.02,10.0,NNE,9.2,-,N/A,,Overcast,30,2013-08-16 21:15:00
5:35 PM,69.8,68.0,94,30.03,10.0,NE,9.2,-,N/A,,Overcast,40,2013-08-16 21:35:00
5:55 PM,69.8,68.0,94,30.04,10.0,ENE,6.9,-,N/A,,Overcast,60,2013-08-16 21:55:00
6:15 PM,69.8,68.0,94,30.05,10.0,ENE,5.8,-,N/A,,Overcast,60,2013-08-16 22:15:00
6:35 PM,69.8,68.0,94,30.06,10.0,ENE,8.1,-,N/A,,Overcast,60,2013-08-16 22:35:00
6:55 PM,69.8,68.0,94,30.06,10.0,ENE,8.1,-,N/A,,Overcast,70,2013-08-16 22:55:00
7:15 PM,69.8,68.0,94,30.06,10.0,NE,5.8,-,N/A,,Overcast,40,2013-08-16 23:15:00
7:35 PM,69.8,68.0,94,30.06,10.0,ENE,8.1,-,N/A,,Overcast,70,2013-08-16 23:35:00
7:55 PM,69.8,68.0,94,30.07,10.0,NE,5.8,-,N/A,,Overcast,50,2013-08-16 23:55:00
8:15 PM,68.0,68.0,100,30.08,10.0,ENE,6.9,-,N/A,,Overcast,60,2013-08-17 00:15:00
8:35 PM,68.0,68.0,100,30.09,10.0,ENE,6.9,-,N/A,,Overcast,70,2013-08-17 00:35:00
8:55 PM,68.0,68.0,100,30.09,10.0,East,5.8,-,N/A,Rain,Light Rain,80,2013-08-17 00:55:00
9:15 PM,68.0,68.0,100,30.09,10.0,ENE,5.8,-,N/A,,Light Drizzle,70,2013-08-17 01:15:00
9:35 PM,68.0,68.0,100,30.09,10.0,East,5.8,-,N/A,,Light Drizzle,80,2013-08-17 01:35:00
9:55 PM,68.0,68.0,100,30.10,10.0,ENE,4.6,-,N/A,,Overcast,70,2013-08-17 01:55:00
10:15 PM,68.0,68.0,100,30.11,10.0,ENE,3.5,-,N/A,,Overcast,60,2013-08-17 02:15:00
10:35 PM,68.0,68.0,100,30.11,7.0,NE,5.8,-,N/A,,Overcast,50,2013-08-17 02:35:00
10:55 PM,68.0,68.0,100,30.11,4.0,ENE,5.8,-,N/A,,Overcast,60,2013-08-17 02:55:00
11:15 PM,68.0,68.0,100,30.10,4.0,NE,3.5,-,N/A,,Light Drizzle,50,2013-08-17 03:15:00
11:35 PM,68.0,68.0,100,30.10,4.0,NE,4.6,-,N/A,,Overcast,50,2013-08-17 03:35:00
11:55 PM,68.0,68.0,100,30.10,2.5,NE,4.6,-,N/A,,Overcast,40,2013-08-17 03:55:00